User: anonymous   Login
Location: Mactaquac Provincial Park
(45.9573°N, 66.8897°W)
Time: 18:33:50
(UTC-03:00)
Language:

CENTAUR R/B - Orbit

View from above orbital plane
View from above orbital plane
View from above satellite
View from above satellite

Ground track
Ground track

The orbit data is extracted from the following two-line orbital elements,

1 26906U 01040B   15126.01466934 0.00000050  00000-0  67110-4 0    03
2 26906  63.4635 154.1844 0289500 344.3214  15.6786 13.43953262    05
Epoch (UTC): 06 May 2015 00:21:07
Eccentricity: 0.0289500
inclination: 63.4635°
perigee height: 878 km
apogee height: 1311 km
right ascension of ascending node: 154.1844°
argument of perigee: 344.3214°
revolutions per day: 13.43953262
mean anomaly at epoch: 15.6786°
orbit number at epoch: 0

The dashed part of the orbit path shows where the satellite is in the earth's shadow,  

DLR